Temp
22 23 24 24 24 24 24 24 24 24 24 23 25 26 26 26 26 25 25 25 25 25 24 25 24 24 24 24 24 24 25 25 25 25 25 25 25 25 25 26 26 26 26 26 27 26 26 26 26 26 26 26 26 26 26 26 26 26 26 26 26 26 26 26 25 25 25 25 25 26 26 26 25 25 25 24 24 24 23 22 22 22 22 21 21
22 22 23 23 24 24 24 24 23 24 24 23 25 26 26 26 26 25 25 25 25 25 25 25 25 24 24 24 25 25 25 25 25 25 25 25 25 25 25 26 26 26 26 26 27 27 26 26 26 26 26 26 26 26 26 26 26 26 26 26 26 26 26 26 26 25 25 24 24 24 25 26 26 26 25 25 24 24 23 23 23 22 22 21 22
22 23 22 22 23 24 23 23 23 24 25 24 25 27 26 26 26 25 25 25 25 25 25 25 25 25 25 25 25 25 25 25 25 26 25 26 26 26 26 26 26 26 26 26 27 27 26 26 26 26 26 26 26 26 26 26 26 26 26 26 26 25 26 26 26 26 25 24 23 23 24 24 25 26 26 25 25 24 24 23 23 23 22 22 22
23 23 23 23 23 23 23 22 23 24 24 25 26 27 26 26 26 25 25 25 25 25 25 25 25 25 25 25 25 26 26 26 26 26 26 26 26 26 26 26 26 26 26 26 26 26 27 26 26 26 26 26 26 26 26 26 26 26 26 26 26 26 26 26 26 26 25 25 24 24 23 23 24 25 25 25 25 24 24 24 23 23 23 23 22
23 23 23 23 23 23 23 23 24 24 25 26 27 26 26 26 26 26 26 25 26 26 26 26 26 25 25 25 25 26 26 26 26 26 26 26 26 26 26 26 26 26 26 26 26 26 26 26 26 26 26 26 26 26 26 26 26 26 26 26 26 26 26 26 26 26 26 25 25 25 24 24 25 24 24 25 25 24 24 24 23 23 23 23 22
24 24 24 23 23 24 23 23 24 25 26 27 27 27 26 26 26 26 26 25 26 26 26 26 26 25 25 25 25 25 25 26 26 26 26 26 26 26 26 26 26 26 26 26 26 26 26 26 26 26 25 25 25 25 25 25 25 26 26 26 26 26 26 26 26 26 26 26 25 25 25 25 25 24 24 25 24 24 24 24 24 24 24 23 23
24 24 24 24 24 24 24 24 25 26 26 27 27 27 26 26 26 26 26 26 26 26 26 26 25 25 25 25 25 25 25 26 26 26 26 26 26 27 26 26 26 26 26 26 26 26 26 26 25 25 25 25 25 25 25 25 25 26 26 26 26 26 26 26 26 26 26 26 26 26 26 26 26 25 25 24 24 24 24 24 25 24 24 24 24
24 24 24 25 24 24 24 24 25 26 27 27 27 27 26 26 26 26 26 26 26 26 26 25 25 25 25 25 25 25 26 26 26 26 26 26 26 27 26 26 26 26 26 26 25 25 25 25 25 25 25 25 25 25 25 25 25 26 26 26 26 26 26 26 26 26 26 26 26 26 26 26 26 25 25 25 24 24 24 24 25 25 25 25 24
24 24 25 25 24 24 25 25 26 26 27 27 27 27 26 26 26 26 26 26 26 26 26 25 25 25 25 25 25 25 26 26 26 26 26 26 26 26 26 26 26 25 26 25 25 25 25 25 25 25 25 25 25 25 25 25 25 25 26 26 26 26 26 26 26 26 26 26 26 26 26 26 25 25 25 24 23 24 24 24 24 24 25 25 25
25 25 25 24 24 24 25 26 26 26 26 26 27 27 26 26 26 25 25 26 26 26 26 26 25 25 26 26 25 26 26 26 26 26 26 26 26 26 26 26 26 26 26 25 25 25 25 25 25 25 25 25 25 25 25 25 25 25 26 26 26 26 26 26 26 26 26 26 26 25 25 26 25 24 24 24 23 23 23 23 22 22 24 25 25
24 25 24 24 24 24 23 25 26 26 26 25 26 26 26 26 26 25 25 25 26 26 26 26 26 25 26 26 26 26 26 26 26 26 25 26 26 26 26 25 26 26 26 25 25 25 25 25 25 25 25 26 26 25 25 25 25 25 25 25 26 26 25 25 25 26 26 26 26 25 25 25 25 25 25 25 24 22 23 22 21 22 22 23 25
24 24 24 24 24 23 23 24 25 25 25 25 26 26 26 26 26 25 25 25 26 26 26 26 26 26 26 26 26 26 26 26 26 26 26 26 26 25 25 25 25 25 25 25 25 25 25 25 25 25 25 25 25 25 25 25 25 25 25 25 25 25 25 25 25 25 25 25 25 25 25 25 25 25 25 25 25 24 24 23 22 23 23 23 24
24 24 24 24 24 24 24 24 25 25 25 25 26 26 26 26 26 25 25 25 26 26 26 26 26 26 26 26 26 26 26 26 26 26 26 26 26 26 25 25 25 25 25 25 25 25 25 25 25 25 25 25 25 25 25 25 25 25 25 25 25 25 25 25 25 25 25 25 25 25 25 25 25 25 25 25 25 25 24 23 22 23 23 23 24
25 25 24 24 24 24 25 25 25 25 26 26 26 26 26 26 26 26 26 26 26 26 26 26 26 26 26 26 26 26 26 26 26 26 26 26 26 26 26 26 25 25 25 25 25 25 25 25 25 25 25 25 25 25 25 25 25 25 25 25 25 25 25 25 25 25 25 25 25 25 25 25 25 25 25 25 25 25 24 23 23 22 22 22 23
25 25 24 24 24 24 25 25 25 25 26 26 26 26 26 26 26 26 26 26 26 26 26 26 26 26 26 26 26 26 26 26 26 26 26 26 26 26 26 26 26 26 26 26 25 25 25 25 25 25 25 25 25 25 25 25 25 25 25 25 25 25 25 25 25 25 25 25 25 25 25 25 25 25 25 25 25 25 25 25 24 23 24 23 22
25 25 25 24 24 25 25 25 25 25 25 26 26 26 26 26 26 26 26 26 26 26 26 26 26 26 25 25 25 25 25 25 25 26 26 26 26 26 26 26 26 26 25 25 25 25 25 25 25 25 25 25 25 25 25 25 25 25 25 25 25 25 24 24 24 24 24 25 25 25 25 25 25 25 25 25 25 25 26 26 25 24 24 24 23
26 25 25 25 24 25 25 25 25 25 25 25 26 26 26 26 25 25 25 25 25 25 25 25 25 25 25 25 25 25 25 25 25 25 26 26 26 26 26 26 25 25 25 25 25 25 25 25 25 25 25 25 25 25 25 25 25 25 25 25 25 24 24 24 24 24 24 24 24 24 24 25 25 25 25 25 25 26 25 26 25 24 24 24 24
26 26 25 25 24 24 25 25 25 25 25 25 26 26 26 26 26 25 25 25 25 25 25 25 25 25 25 25 25 25 25 25 25 25 25 25 25 25 25 25 25 25 25 25 25 24 24 24 24 25 25 25 25 25 25 24 24 24 24 24 24 24 24 24 24 24 24 24 24 24 24 24 25 24 24 25 25 25 25 25 26 25 24 24 24
27 26 25 25 24 24 25 25 25 25 25 26 26 26 26 26 26 25 25 25 25 25 25 25 25 25 25 25 25 25 25 25 25 25 25 25 25 25 25 25 25 25 25 25 25 24 24 24 24 24 24 25 25 25 25 24 24 24 24 24 24 24 24 24 24 24 24 23 23 24 24 24 24 24 24 25 25 25 25 25 26 25 25 24 24
27 26 25 25 24 24 25 25 24 25 25 25 26 26 26 25 25 25 25 25 25 25 25 25 25 25 25 25 25 25 25 25 25 25 25 25 25 25 25 25 25 24 24 24 24 24 24 24 24 24 24 24 24 25 25 24 24 24 24 24 24 23 23 24 24 24 23 23 23 23 24 24 24 24 24 25 25 25 25 25 25 26 25 25 25
27 26 25 25 24 25 25 25 24 24 24 25 25 25 25 25 25 25 25 25 25 24 24 25 25 25 24 24 24 24 24 24 24 24 24 24 24 24 24 24 24 24 24 24 24 24 24 24 24 24 24 24 24 24 24 24 24 24 24 24 23 23 23 23 24 23 23 23 23 23 23 23 24 24 24 24 25 25 25 25 25 26 26 26 25
27 26 25 25 24 24 24 24 23 23 24 24 25 25 25 25 25 25 25 24 24 24 24 24 25 24 24 24 24 24 24 24 24 24 24 24 24 24 24 24 24 24 24 24 24 24 24 24 24 24 24 24 24 24 24 24 24 24 23 23 23 23 23 23 23 23 23 23 23 23 23 23 23 23 24 24 24 24 25 25 25 25 26 26 26
27 26 26 25 24 24 23 23 23 22 23 24 24 25 25 24 24 24 24 24 24 24 24 24 24 24 24 24 24 24 24 24 24 24 24 24 24 24 24 24 24 24 24 24 23 23 23 23 23 23 23 23 23 23 24 24 24 24 24 23 23 23 23 23 23 23 23 23 23 23 23 23 23 23 23 24 24 24 24 25 25 25 26 26 26
27 26 25 24 23 23 23 22 22 22 23 23 24 24 24 24 24 24 24 24 24 23 23 24 24 24 23 23 23 23 23 23 23 24 24 24 23 23 24 24 24 24 23 23 23 23 23 23 23 23 23 23 23 23 23 24 24 24 24 24 24 23 23 23 23 23 23 23 23 23 23 23 23 23 23 24 24 24 24 24 25 25 25 25 26
26 26 25 24 23 23 22 22 22 22 22 23 23 23 24 24 24 23 23 23 24 23 23 23 23 22 21 21 22 23 23 22 23 23 23 23 23 23 23 23 23 23 23 22 22 22 22 22 23 23 23 23 23 23 23 23 23 23 23 24 24 23 23 23 23 23 23 23 23 23 23 23 23 23 23 23 24 24 24 24 24 24 25 25 25
26 25 24 24 23 23 22 22 22 22 22 22 23 23 23 23 23 23 23 23 23 23 23 23 22 21 21 22 21 22 22 22 23 23 23 23 23 23 23 23 23 22 22 22 22 22 22 22 22 22 23 23 23 23 23 23 23 23 23 23 23 23 23 23 23 23 23 23 23 23 23 23 23 23 23 23 23 23 24 24 24 24 24 24 25
24 24 24 23 23 23 22 22 22 22 22 22 22 22 23 23 23 23 23 23 23 23 23 22 22 21 21 21 22 22 22 22 23 23 22 22 22 22 23 23 22 22 22 21 21 21 22 22 22 22 22 22 22 22 23 23 23 23 23 23 23 23 23 23 23 23 23 22 22 22 22 23 22 23 23 23 23 23 23 23 23 24 24 24 24
22 23 23 23 23 23 22 21 21 21 21 22 22 22 23 23 23 23 23 23 23 23 23 22 22 21 21 22 23 23 23 23 23 22 22 22 22 22 22 22 22 22 22 21 21 21 22 22 22 22 22 22 22 22 22 22 23 23 23 23 23 22 22 22 22 23 22 22 22 22 22 22 22 22 23 23 23 23 23 23 23 23 23 24 24
23 23 22 22 22 22 22 21 21 21 21 22 22 22 23 23 23 23 23 23 23 23 23 22 22 22 22 23 23 23 23 22 22 22 22 22 22 22 22 22 21 22 21 21 21 21 21 22 22 22 22 22 22 22 22 22 23 23 23 23 23 22 22 22 22 22 22 22 22 22 22 23 22 22 22 22 22 22 22 23 23 23 23 23 23
24 24 24 23 22 22 21 21 21 21 21 22 22 22 23 23 23 23 23 24 23 23 22 22 21 22 22 22 22 22 22 21 21 21 21 22 23 23 22 21 21 21 21 21 21 21 21 22 22 22 22 22 21 22 22 22 22 22 22 22 22 22 22 22 22 22 22 22 22 22 22 23 22 22 22 22 22 22 22 22 22 22 22 22 22
23 24 24 23 22 22 21 21 21 21 21 22 22 22 22 22 23 23 23 24 23 22 22 21 22 22 22 21 21 21 21 21 21 21 21 22 22 21 20 20 21 21 21 21 21 21 21 21 21 21 21 21 21 21 22 22 22 22 22 22 22 22 22 22 22 22 22 22 22 22 22 22 22 22 22 22 22 22 22 22 22 22 22 21 21
22 22 23 22 21 22 21 21 22 21 21 21 22 22 22 22 23 23 23 23 23 22 22 22 22 22 21 21 21 21 22 22 21 21 21 20 20 20 20 21 21 21 20 20 21 21 21 21 21 21 21 21 21 21 22 22 22 22 22 22 22 22 22 21 21 22 22 22 22 22 22 22 22 22 22 22 22 22 22 22 22 22 22 22 22
21 21 21 21 20 21 21 21 22 22 22 22 22 22 22 23 23 23 23 23 22 22 22 22 22 22 22 23 23 22 22 22 21 20 20 20 20 20 21 21 21 21 20 21 21 21 21 21 21 21 21 21 21 21 22 22 22 22 22 22 22 22 21 21 22 22 22 22 22 22 22 22 22 22 22 22 22 22 22 22 22 22 22 22 22
20 20 20 20 20 20 21 21 21 22 22 22 22 22 22 22 23 23 23 22 22 22 22 22 22 23 23 23 23 22 22 22 21 20 20 20 21 21 21 21 21 21 21 21 21 21 21 21 20 20 20 21 21 21 21 21 21 21 21 21 21 21 21 21 22 22 22 22 22 22 22 22 22 22 22 22 22 21 21 21 21 21 21 21 21
20 20 20 20 20 20 20 20 21 22 22 22 22 22 22 22 22 23 23 22 22 22 22 22 23 23 23 23 22 22 22 22 21 21 21 21 21 21 21 21 21 21 21 21 21 20 20 21 20 20 20 21 21 20 20 20 20 21 21 21 21 21 21 22 22 22 22 22 22 23 22 22 22 22 21 21 21 21 21 21 20 21 21 21 21
20 20 19 20 20 20 20 20 20 22 23 23 22 21 21 22 22 22 22 22 22 22 22 22 22 22 23 23 22 22 22 22 21 21 21 21 21 22 22 22 22 22 21 22 22 21 21 21 20 20 21 21 20 20 20 20 20 20 21 21 21 21 21 21 21 22 22 22 22 22 22 22 22 21 22 22 21 21 21 21 21 21 21 21 21
20 20 20 20 19 20 20 21 20 22 24 24 23 21 21 21 21 21 22 22 22 22 22 22 22 22 23 23 22 22 22 22 22 21 21 21 22 22 22 22 22 22 22 22 23 23 22 22 21 21 21 20 20 20 20 20 20 20 20 20 20 20 21 21 21 21 21 21 21 21 21 21 21 21 21 21 21 21 21 21 21 21 21 21 21
20 20 20 19 19 20 20 21 22 23 24 24 24 22 20 21 21 21 21 22 21 22 22 22 22 22 22 22 23 22 22 22 22 22 22 22 22 22 22 22 22 23 23 23 23 23 22 22 22 21 21 20 20 20 20 20 20 20 20 20 20 20 20 20 20 20 20 20 21 21 21 21 21 21 21 21 21 21 21 21 21 21 21 21 21
20 20 20 19 19 20 20 21 23 24 23 22 23 22 20 20 21 21 21 22 22 22 22 22 23 23 22 23 23 23 23 23 22 22 22 22 22 22 22 23 23 23 23 23 23 22 22 21 21 21 21 21 20 20 20 20 20 19 19 19 19 19 19 19 19 19 19 20 20 20 20 20 20 20 20 20 20 20 20 20 20 20 20 20 20
19 20 20 19 19 20 20 19 20 21 21 21 21 21 20 20 21 21 21 22 22 22 22 23 23 23 23 23 23 23 23 23 23 22 22 22 22 22 23 23 23 23 23 22 22 22 21 21 21 21 20 20 20 20 19 19 19 19 19 19 18 18 18 18 18 18 19 19 19 19 19 19 19 19 19 19 19 19 20 20 20 20 20 20 19
19 20 20 19 19 20 19 19 19 20 19 19 20 20 21 21 21 21 22 22 22 22 23 23 23 23 23 23 24 24 23 23 23 22 22 22 22 23 23 23 23 22 22 22 22 21 21 20 20 20 20 19 19 19 19 19 19 18 18 18 18 18 17 18 18 18 18 18 18 19 19 19 19 19 19 19 19 19 19 19 19 19 19 19 19
20 20 20 19 19 19 19 19 19 20 20 20 19 19 20 20 20 20 22 23 22 23 23 23 23 24 24 24 24 23 23 23 23 23 22 22 22 23 23 23 22 22 22 21 21 21 21 20 20 20 20 19 19 19 19 19 18 18 18 18 18 17 18 18 17 17 17 18 18 18 18 19 19 19 19 19 19 18 18 18 18 18 18 18 18
20 19 19 20 19 19 19 19 19 20 22 22 20 18 18 20 20 20 21 22 23 23 23 24 24 24 24 24 23 23 23 23 23 23 23 22 22 22 22 22 22 22 21 21 21 20 20 20 19 19 19 19 19 19 19 18 18 18 18 18 17 17 18 18 18 17 17 18 18 18 18 18 19 19 18 18 18 18 17 17 17 17 17 18 18
20 19 19 20 19 19 19 19 19 20 22 22 21 19 18 20 22 22 20 21 23 24 23 24 24 24 24 24 23 23 23 23 23 23 22 22 22 22 22 22 22 21 21 21 20 20 20 20 19 19 19 19 19 19 18 18 18 18 18 18 18 18 18 18 17 17 17 17 18 18 18 18 18 18 18 18 17 17 17 17 17 17 17 18 18
20 20 20 20 19 18 18 19 19 20 20 20 20 20 18 19 23 23 20 21 23 24 24 24 24 24 24 23 23 23 23 23 23 23 22 22 22 22 21 21 21 21 21 20 20 20 20 20 20 19 19 19 19 19 18 18 18 18 18 18 18 17 17 17 17 17 17 17 17 17 18 18 17 17 17 17 17 17 17 17 17 17 18 18 18
20 20 20 20 20 19 18 19 19 19 20 20 20 20 19 19 20 21 20 22 24 24 23 24 23 23 24 23 23 23 23 23 23 23 22 22 22 21 21 21 21 21 20 20 20 20 20 20 20 20 19 19 19 19 18 18 18 18 18 18 17 17 17 17 18 18 17 17 17 17 17 17 17 17 17 17 17 17 17 17 17 17 17 18 18
20 20 20 20 20 19 18 19 19 20 20 19 19 19 19 19 20 19 18 22 25 24 24 24 23 23 23 23 22 23 22 22 22 22 22 22 22 22 21 21 21 20 20 20 20 20 20 20 20 20 19 19 19 18 18 18 18 18 18 18 18 17 17 17 18 18 17 17 17 17 17 17 18 17 18 18 17 17 17 17 17 17 17 17 17
21 21 21 20 20 20 19 19 19 19 20 20 20 19 19 19 19 18 17 20 24 24 24 24 24 23 23 23 22 22 22 22 22 22 22 22 21 21 21 21 21 21 20 20 20 20 20 20 20 20 19 19 19 18 19 19 18 18 18 18 18 17 17 17 17 18 18 18 18 18 18 18 18 18 18 18 18 17 17 17 17 17 17 16 16
21 22 22 21 21 21 20 20 19 20 20 20 20 20 20 19 19 18 17 19 23 24 24 24 24 24 23 23 22 22 22 22 22 22 22 21 21 21 21 21 21 21 21 21 20 20 20 20 20 20 20 19 19 19 19 19 19 19 18 18 18 18 18 17 17 18 18 18 18 18 18 18 18 18 18 18 18 18 17 17 17 17 17 16 16
22 22 22 22 22 22 21 21 21 21 20 20 20 21 20 19 19 18 18 19 22 23 23 23 24 23 23 23 23 22 22 22 22 21 21 21 21 21 21 21 21 21 21 21 21 21 21 21 21 20 20 20 20 20 20 20 19 19 19 18 18 18 18 17 17 18 18 18 18 18 18 18 18 18 18 18 18 18 17 17 17 17 17 17 16
22 22 22 22 22 22 22 22 22 21 21 20 20 21 20 20 19 19 18 19 21 22 23 23 23 23 23 23 23 23 22 22 22 22 22 21 21 21 20 21 21 21 21 21 21 21 21 21 21 21 21 21 21 20 20 20 19 19 19 18 18 18 18 17 18 18 18 18 18 18 18 18 18 18 19 19 18 18 18 18 18 17 17 17 16
Height
776 777 779 780 782 785 787 790 792 793 800 806 804 801 802 803 804 805 806 809 811 813 814 815 817 818 820 821 822 823 825 826 827 828 829 830 831 831 832 832 833 833 834 835 836 836 837 837 837 837 837 837 837 837 837 837 837 838 838 837 837 836 836 836 835 835 834 833 832 831 831 832 832 833 833 833 834 833 833 833 832 832 831 831 830
776 777 778 779 781 784 787 788 789 787 792 802 802 800 801 802 803 805 806 808 809 811 813 814 815 816 818 819 820 822 823 824 825 826 828 829 830 830 831 831 832 832 833 834 835 835 835 836 836 837 837 837 837 837 837 837 837 837 837 837 836 836 836 835 835 835 835 833 832 832 831 831 831 831 832 832 832 832 832 832 832 831 831 830 830
778 777 778 779 779 782 785 786 787 785 787 795 798 798 799 800 802 803 805 806 808 810 812 813 815 816 818 818 820 821 822 823 825 825 827 828 828 829 829 830 831 831 832 833 834 834 835 835 835 836 836 837 837 837 837 837 836 836 836 836 836 836 835 835 834 834 834 834 833 834 834 833 832 830 830 831 831 831 831 831 831 831 831 830 830
778 778 777 778 779 781 783 786 787 786 787 791 794 795 796 798 800 802 803 805 807 809 811 813 815 816 818 819 820 821 822 823 824 825 826 827 827 827 828 829 830 830 831 832 833 833 834 834 834 835 835 836 837 837 837 836 836 835 835 835 835 835 834 834 834 834 834 834 834 835 835 837 837 832 830 830 830 830 830 830 830 830 830 830 830
776 777 777 777 778 779 781 784 785 786 787 789 789 791 793 796 798 800 802 804 805 808 810 812 814 816 817 818 820 821 822 822 823 824 824 825 826 826 827 828 829 830 830 831 831 832 833 833 834 834 835 836 836 836 837 836 836 835 835 834 834 834 833 833 834 833 833 833 834 835 836 839 838 833 831 831 829 829 830 830 830 831 830 830 830
772 773 774 775 776 778 780 781 783 785 786 787 787 789 791 793 796 798 800 802 804 806 808 810 812 814 815 816 817 818 819 820 821 821 822 823 824 825 826 827 828 829 829 830 830 831 832 833 834 834 835 835 835 836 836 836 835 835 834 834 834 834 833 833 833 833 833 833 833 833 834 836 834 832 834 834 831 829 829 830 830 830 830 830 829
771 771 771 773 775 776 778 779 780 782 784 785 787 788 790 792 794 797 799 801 803 805 807 809 810 812 814 814 815 816 817 818 819 820 821 822 823 824 825 826 827 828 828 829 829 830 831 832 833 834 834 835 835 835 835 835 835 834 834 834 833 833 833 832 832 832 832 832 833 833 832 832 832 832 834 835 834 832 829 829 830 829 829 829 828
770 771 771 771 772 773 775 777 778 780 783 785 786 787 788 790 793 795 798 800 802 804 806 807 809 811 812 813 814 815 816 817 818 819 820 821 822 823 824 825 826 827 828 828 829 829 830 831 832 833 834 834 834 834 834 834 834 834 833 833 833 833 833 832 832 832 832 832 833 833 832 832 832 832 832 833 835 835 831 829 828 828 828 828 828
766 768 769 769 770 771 772 774 777 779 781 783 784 786 787 789 792 794 797 799 801 803 805 806 808 810 811 813 814 815 816 817 817 818 819 820 821 822 823 824 825 826 827 828 829 829 830 830 831 832 833 834 834 834 833 833 833 833 832 832 832 832 832 832 832 832 832 832 832 833 833 832 832 832 832 831 832 834 833 829 828 827 826 826 827
764 764 765 766 768 770 772 773 774 776 778 782 783 784 786 788 791 793 795 798 800 802 804 805 807 809 810 812 813 814 815 815 817 818 818 819 820 821 822 823 824 825 826 827 828 829 829 830 830 831 832 832 833 833 833 833 832 832 832 832 832 832 832 832 832 832 831 831 832 832 833 833 832 832 832 832 831 832 832 830 828 827 827 826 826
763 764 764 765 768 771 774 774 773 774 778 781 782 783 785 788 790 792 794 797 799 800 802 804 806 808 809 810 811 812 813 814 815 816 818 818 819 820 821 822 823 824 825 826 827 828 829 829 829 830 830 831 832 832 832 832 832 832 831 831 831 831 831 831 831 831 831 831 831 831 832 832 832 832 831 831 830 831 831 830 828 828 827 826 825
762 764 765 765 768 772 775 775 773 774 778 781 781 782 785 787 789 792 794 796 797 799 801 803 804 806 807 809 810 811 812 813 814 815 816 817 818 819 820 821 822 823 824 825 826 827 827 828 828 829 829 830 830 831 831 831 831 831 831 831 831 831 831 831 831 830 830 829 829 829 830 830 831 830 830 830 829 829 830 829 828 828 828 826 826
761 763 765 765 767 770 772 774 773 774 777 779 780 781 784 786 788 790 792 794 796 798 800 802 803 804 806 807 808 810 811 812 813 814 815 816 817 818 819 820 821 822 823 823 824 825 826 826 827 827 828 828 829 829 830 830 830 830 830 830 830 830 830 830 830 830 829 828 828 828 828 828 829 828 828 828 828 828 829 828 828 828 828 827 827
761 762 764 764 765 767 768 770 772 773 775 777 779 781 783 785 787 789 791 793 794 796 798 800 802 803 804 806 807 809 810 811 812 812 813 815 815 816 818 819 820 820 821 822 823 824 824 825 826 826 827 827 827 828 828 829 829 829 829 829 829 829 830 829 829 829 828 827 827 827 826 826 827 827 827 827 827 827 827 827 827 828 827 827 827
759 760 761 762 763 765 767 768 770 772 774 775 777 779 781 783 785 787 789 791 793 795 797 798 800 802 803 805 806 808 809 809 811 811 812 813 814 815 816 817 818 819 820 821 821 822 823 823 824 824 825 825 826 826 827 827 828 828 828 829 829 829 829 828 828 828 827 827 826 826 825 825 826 826 826 826 826 826 826 826 827 828 828 827 826
757 758 759 760 760 762 765 767 769 772 773 775 776 778 779 781 783 785 787 789 791 793 795 797 798 800 802 803 805 806 807 808 809 810 811 812 813 813 814 815 816 817 818 819 820 820 821 821 822 822 823 823 824 825 825 826 826 827 827 827 828 828 827 827 827 826 826 826 825 825 825 825 825 825 825 826 826 826 826 826 826 826 828 829 827
754 755 756 758 759 761 763 765 768 771 773 774 775 777 778 779 781 783 785 787 789 791 793 795 796 798 800 801 803 804 805 806 807 808 809 810 812 812 813 814 815 815 816 817 818 818 819 819 820 820 821 821 822 823 824 824 825 825 826 826 826 826 826 826 826 825 825 825 825 825 824 824 824 824 825 825 825 826 826 826 826 825 826 828 828
752 752 754 756 757 760 762 765 768 770 773 774 775 776 776 777 779 780 783 784 786 789 790 792 794 796 798 799 801 803 804 805 805 806 808 809 810 811 812 813 813 814 814 815 816 816 817 817 818 818 819 819 820 821 822 823 823 824 824 825 825 825 825 824 824 824 824 825 824 824 824 823 823 824 824 825 825 825 825 825 825 824 824 825 825
752 753 755 755 755 758 760 761 763 764 767 768 770 772 773 775 776 778 780 782 784 786 788 790 792 793 796 797 799 800 802 803 804 805 806 807 808 809 810 811 811 812 813 813 814 814 814 815 815 816 816 817 817 818 820 821 821 822 822 823 823 823 823 822 823 823 823 824 823 823 822 822 822 822 823 824 824 824 824 823 823 822 823 823 822
752 752 753 753 753 755 755 756 756 755 756 758 762 766 769 772 774 776 779 780 782 785 786 788 789 791 793 794 796 798 799 801 802 804 805 805 806 807 808 809 809 810 811 811 811 811 812 812 813 814 814 814 815 816 817 818 819 820 820 821 821 822 822 821 821 821 822 822 822 822 821 821 821 821 821 822 822 822 823 822 822 821 820 820 820
749 749 750 751 752 753 754 754 755 756 758 759 761 764 766 769 771 773 776 778 780 782 784 785 787 788 790 791 793 795 797 799 800 802 803 804 805 805 806 807 807 808 809 809 809 809 809 810 811 812 812 813 813 814 815 816 817 818 818 819 819 820 820 820 820 820 820 820 821 820 820 820 820 820 820 820 820 821 821 821 821 820 819 818 818
748 747 748 749 751 752 753 754 757 760 761 762 763 764 765 768 770 772 775 776 778 780 781 783 784 785 787 788 791 792 794 796 798 799 801 802 803 804 804 805 805 806 807 807 807 807 808 809 810 811 812 812 813 813 814 815 815 816 816 817 817 818 818 819 819 819 818 819 819 819 819 819 819 818 818 818 819 819 819 819 819 819 818 817 817
746 746 746 748 749 751 753 755 758 761 761 762 764 764 765 767 769 772 773 775 777 778 779 781 781 783 784 786 789 790 792 794 795 797 798 799 801 802 803 803 803 804 805 805 805 806 807 808 809 810 810 811 812 813 813 814 814 814 814 814 815 816 816 817 817 817 817 817 818 817 817 817 817 817 817 817 817 817 817 817 817 817 817 816 815
746 746 747 749 749 750 753 754 757 760 761 764 766 766 767 768 769 771 772 774 776 777 778 779 780 781 784 786 788 789 790 792 793 795 796 797 799 800 800 801 801 802 803 803 804 805 806 806 806 807 808 809 810 811 812 812 813 813 813 813 813 814 814 815 815 816 816 816 816 816 815 815 815 815 815 815 815 816 816 816 816 816 815 815 814
748 749 750 751 750 750 752 753 755 758 760 764 767 768 768 769 770 771 772 773 774 775 776 777 779 782 786 788 789 789 789 790 791 791 792 795 796 797 798 798 799 800 801 802 802 803 804 804 804 805 806 807 808 809 810 811 811 812 811 811 811 812 812 813 813 814 814 814 814 814 813 813 813 813 813 814 814 814 815 815 815 814 814 814 813
752 751 751 751 750 751 752 753 756 759 760 762 765 767 768 769 770 770 771 772 772 773 775 776 778 781 784 786 787 787 787 788 788 788 789 792 793 795 795 796 797 799 799 800 801 802 802 802 803 804 805 805 806 807 808 809 810 810 810 810 810 810 811 811 812 812 812 812 811 811 811 812 812 812 812 812 813 813 813 813 814 813 813 813 812
757 755 754 752 752 752 752 754 758 760 762 762 764 766 768 768 769 770 770 771 771 772 773 774 776 779 781 782 783 783 783 784 785 786 787 789 790 791 792 793 796 797 798 799 799 800 800 801 802 802 802 803 804 805 806 807 808 808 808 808 808 808 809 809 810 810 810 810 810 810 810 810 810 810 811 811 811 812 812 812 812 812 812 812 811
760 760 759 756 755 754 753 754 757 760 763 763 764 766 767 767 768 769 770 771 771 771 772 773 775 777 778 778 778 779 780 781 783 784 785 786 787 789 790 792 794 796 796 797 797 798 798 799 800 800 800 801 801 802 803 805 806 807 807 807 807 807 807 808 808 808 809 809 809 809 809 809 809 809 809 810 810 810 810 810 810 810 811 811 811
760 758 759 759 759 756 755 757 759 761 763 764 764 765 767 768 768 769 770 771 771 771 771 773 774 775 776 776 776 777 778 779 780 781 783 785 786 787 787 790 792 794 794 795 795 796 796 797 797 797 797 798 799 800 801 802 804 805 806 806 806 806 806 806 807 807 807 808 808 808 807 807 808 808 808 808 807 808 808 808 808 809 809 810 810
760 755 754 757 758 757 757 759 761 763 765 765 765 765 767 768 769 770 771 771 772 772 772 774 774 774 775 775 776 777 777 778 779 780 782 783 783 784 786 789 791 792 793 793 794 794 795 795 796 795 796 796 797 799 799 801 803 804 804 805 805 805 805 805 806 806 806 806 806 806 806 806 806 806 806 806 805 806 807 807 807 808 808 809 810
761 757 753 754 757 758 757 758 762 765 767 767 766 766 768 769 770 772 772 773 774 774 774 775 775 775 776 776 777 777 777 778 778 779 780 781 782 785 788 790 790 790 791 792 793 793 793 794 794 795 796 796 797 798 799 800 801 802 803 804 804 804 804 804 805 805 805 805 804 804 804 805 805 805 805 805 804 805 805 806 806 807 807 808 808
762 760 759 760 763 763 760 760 763 766 768 769 768 767 769 770 771 773 774 775 776 776 776 776 776 777 777 777 777 777 777 777 778 779 780 782 784 787 788 788 788 789 790 790 791 792 792 793 793 794 795 796 797 798 799 800 800 801 802 803 803 803 803 804 804 804 804 804 803 804 803 803 804 804 804 804 803 804 804 804 804 805 806 806 806
763 765 766 767 768 768 765 761 762 765 767 769 769 769 769 769 771 773 775 776 777 777 778 777 777 778 777 777 778 777 776 777 778 780 782 782 784 785 785 785 786 787 788 789 790 790 790 792 793 793 795 795 796 797 798 799 800 801 801 802 802 802 802 803 803 802 803 803 802 803 802 802 802 802 803 803 802 803 803 803 803 803 804 803 803
763 767 770 769 769 771 766 758 757 761 763 766 769 770 770 770 770 772 774 776 778 779 779 778 778 778 778 778 779 778 778 778 778 780 781 781 782 782 783 784 784 786 787 787 788 789 790 791 792 793 794 795 796 797 798 799 800 800 801 801 801 802 802 802 802 801 802 801 801 801 801 801 801 801 802 802 802 802 802 802 802 802 802 801 801
765 766 768 767 767 768 764 756 753 756 758 762 766 769 771 771 770 771 772 774 777 779 779 779 779 778 778 779 779 779 778 778 778 779 779 780 780 780 781 782 783 784 785 786 787 788 789 790 791 793 794 794 796 797 798 799 799 800 800 801 801 801 801 801 801 801 801 800 800 800 800 801 801 801 801 801 801 801 801 801 801 801 801 801 801
768 767 765 764 764 764 761 756 753 751 752 755 760 765 770 771 770 770 771 772 775 777 778 779 779 778 778 778 778 779 779 778 778 778 778 779 779 779 780 781 782 783 784 785 786 787 788 789 790 792 793 794 795 796 797 798 799 799 800 800 800 800 800 800 800 800 800 799 799 799 800 800 800 800 800 800 800 800 800 800 800 800 801 801 801
769 769 767 765 764 762 758 755 752 749 748 750 753 760 766 770 771 771 771 771 773 774 776 778 779 779 779 778 778 778 778 778 778 777 777 777 777 778 779 779 780 782 783 784 785 785 786 787 789 790 792 793 794 795 796 797 798 799 799 799 799 799 799 799 799 800 799 799 799 799 799 800 800 800 800 800 799 799 799 799 799 799 799 799 799
769 767 765 764 762 759 757 754 749 747 747 748 750 755 762 769 772 772 772 772 772 773 774 776 778 780 780 780 780 779 778 777 776 775 775 775 776 776 777 777 779 780 781 782 783 784 786 787 788 790 791 792 793 794 795 796 797 798 798 798 798 798 798 798 797 798 798 798 799 799 799 799 799 799 800 799 799 799 799 799 798 798 798 798 797
768 765 763 762 760 757 757 754 749 747 748 751 752 754 759 767 771 772 773 773 772 773 774 775 778 780 780 780 780 779 777 776 775 774 774 773 774 775 775 776 777 778 779 780 781 783 784 786 788 789 790 791 792 793 795 795 796 796 797 797 797 796 796 796 796 796 796 797 798 798 799 799 799 799 799 799 799 799 798 798 798 797 797 796 796
768 764 761 760 759 756 755 755 752 751 752 755 757 757 760 766 771 772 773 772 772 773 774 775 777 779 780 780 780 779 777 775 775 774 774 774 774 775 775 776 776 777 778 779 780 781 783 784 786 787 789 790 791 792 793 794 794 795 795 795 794 794 794 794 795 794 795 796 797 798 798 799 799 799 799 798 798 798 798 797 797 796 796 795 795
768 765 761 759 758 756 755 756 757 755 754 757 762 763 762 766 771 772 771 771 772 773 774 776 777 778 779 780 779 779 777 776 775 775 775 776 776 776 776 776 777 777 778 778 779 780 781 783 785 786 787 789 790 791 792 792 793 793 793 793 792 792 793 794 794 794 795 796 796 797 798 798 798 798 798 797 797 797 797 796 796 795 795 794 794
769 767 764 761 760 758 756 757 758 757 755 757 763 767 767 767 771 773 772 771 773 774 774 775 776 777 778 779 780 779 777 776 775 775 775 776 776 777 777 777 778 778 779 780 780 781 782 783 784 785 787 788 789 790 791 791 792 792 792 791 791 791 792 793 794 794 795 796 796 796 797 797 797 797 796 796 796 795 795 795 795 795 794 794 793
771 769 767 764 762 761 759 758 757 756 756 757 761 768 771 769 770 773 774 773 773 774 775 775 775 775 776 777 779 779 778 777 776 775 775 775 776 776 777 778 778 779 780 781 781 782 783 784 784 786 787 787 789 790 790 791 791 791 791 791 790 791 792 792 793 794 795 795 795 795 795 795 795 795 795 794 794 794 794 794 795 795 794 794 793
772 771 770 767 766 765 762 758 755 756 758 758 760 766 769 767 766 770 775 775 773 773 775 775 775 775 775 776 777 778 778 778 776 775 775 774 775 776 776 777 778 779 779 780 781 782 782 783 784 785 786 787 788 789 790 791 791 791 791 790 790 790 791 792 793 794 794 794 794 794 794 794 794 794 794 794 794 794 795 795 795 795 794 794 793
773 772 771 769 768 769 767 760 756 756 759 762 764 767 767 765 764 769 774 774 772 772 774 775 776 776 775 775 775 775 776 776 775 775 774 773 774 775 776 777 777 778 778 779 779 780 781 782 783 784 785 787 788 789 790 790 791 791 791 791 790 790 791 792 792 793 793 794 794 794 794 794 794 794 795 795 795 795 795 795 795 795 794 794 794
773 771 771 769 768 770 770 764 759 758 760 764 767 768 767 766 767 771 774 772 770 771 773 774 776 777 776 776 776 775 774 774 773 773 772 772 773 773 774 775 776 776 777 777 778 779 779 780 782 783 784 785 786 787 789 789 790 791 791 790 791 790 791 792 792 793 793 793 793 793 793 794 794 794 795 795 795 796 796 796 795 795 795 794 794
772 770 770 769 768 770 772 768 764 763 763 766 767 767 767 768 769 773 775 771 768 769 772 773 775 777 777 777 776 776 775 774 773 771 770 770 770 771 772 773 774 775 776 776 777 778 779 780 781 781 782 784 784 786 787 788 789 789 789 790 790 791 791 792 792 793 793 793 793 793 793 794 794 794 795 795 796 796 796 796 796 795 795 794 794
773 770 769 768 767 769 772 770 768 767 767 767 767 766 768 770 771 774 776 771 766 766 768 771 773 776 777 777 777 777 777 776 775 773 772 770 769 769 769 769 770 771 772 774 776 777 778 779 780 780 781 782 783 784 785 786 787 787 788 789 789 790 791 791 792 793 793 793 793 793 793 793 793 793 794 795 796 796 796 796 796 795 794 794 793
774 770 768 768 768 769 770 770 768 767 768 768 766 766 770 775 776 777 776 771 765 763 764 767 770 772 775 776 777 777 777 777 776 775 774 772 771 769 768 767 767 767 768 770 771 773 775 777 778 779 780 781 781 782 783 784 785 785 786 787 787 788 790 791 792 792 792 792 792 792 792 792 792 793 794 795 795 796 796 796 796 795 794 793 792
774 770 768 768 768 767 766 766 766 766 767 768 767 767 771 776 778 778 775 770 764 760 761 763 766 769 771 773 774 776 776 776 776 775 774 773 771 770 769 768 767 767 767 767 768 769 771 773 775 776 778 778 779 780 781 782 783 783 784 785 786 787 789 790 791 791 791 791 791 791 791 792 792 793 793 794 795 795 795 795 795 794 794 793 792
773 771 768 767 765 763 761 762 763 765 767 768 768 767 768 771 774 775 774 770 763 759 759 760 762 765 768 769 771 773 774 774 775 774 773 772 771 770 769 768 768 767 767 767 768 768 769 770 772 773 775 776 777 778 779 780 781 782 783 784 785 786 787 788 789 789 790 790 790 790 791 791 792 792 792 793 794 794 794 794 794 794 794 793 792
Wind_Speed
9 15 17 20 22 20 21 23 24 27 21 19 24 30 28 29 29 28 29 29 27 26 25 26 26 26 25 24 23 22 22 22 23 23 23 23 21 20 19 18 18 19 20 18 17 17 14 9 5 5 6 6 5 6 6 5 4 4 4 5 7 7 7 8 8 9 10 10 9 11 12 10 9 8 7 7 5 4 5 5 5 6 7 8 7
8 11 14 18 21 20 21 25 27 29 27 23 24 30 30 29 30 30 30 30 28 28 27 26 26 27 25 25 24 22 21 21 22 23 23 23 21 21 21 20 18 18 18 17 16 18 17 12 9 6 5 5 6 6 6 6 7 7 7 6 7 7 8 7 7 7 6 5 6 8 10 9 8 7 6 6 4 3 3 4 5 7 8 8 4
8 8 11 15 19 21 21 24 26 28 31 30 28 29 31 31 31 31 31 32 30 29 30 27 26 26 24 24 24 22 22 21 20 20 21 20 18 22 24 23 20 18 16 16 16 18 18 16 13 10 7 6 6 7 8 9 10 10 8 7 7 8 9 8 7 6 5 4 3 3 4 5 6 5 5 5 4 2 3 4 5 7 8 6 2
9 9 9 13 17 19 21 22 24 27 30 32 31 30 32 33 32 32 32 32 31 31 32 28 25 25 22 20 21 21 22 21 16 16 19 17 15 21 26 25 21 18 15 14 15 16 18 18 16 13 10 8 7 8 9 10 10 10 8 8 9 10 10 9 7 7 8 5 1 1 0 2 3 3 5 5 3 3 5 5 5 5 6 4 2
10 10 9 10 14 18 21 24 25 26 27 31 33 32 34 35 34 34 33 32 32 31 32 29 24 23 20 17 17 18 20 20 17 16 18 16 16 19 24 26 22 18 16 14 14 15 16 18 17 15 12 9 9 9 9 9 9 10 9 9 11 11 11 10 8 8 9 9 5 3 1 1 2 2 4 4 3 4 6 5 6 5 5 4 2
10 11 11 11 15 18 21 24 25 23 26 31 33 33 35 36 36 35 34 33 33 31 31 29 26 24 22 18 18 20 20 21 21 20 18 17 16 17 21 25 23 19 16 14 13 14 15 16 16 15 13 11 10 9 10 9 9 10 9 10 10 9 9 9 8 7 8 10 11 9 6 5 4 1 1 2 3 4 4 5 7 6 6 5 4
8 10 11 11 15 18 20 23 25 24 26 30 31 33 35 36 37 37 35 34 33 32 30 29 27 25 25 23 22 23 23 22 24 23 20 19 16 15 21 25 23 20 17 15 14 13 14 14 13 13 13 13 12 11 10 10 11 11 10 11 9 6 6 6 6 6 6 8 11 12 12 11 7 2 1 1 3 3 3 5 6 5 7 8 6
8 9 10 10 13 18 21 25 26 26 26 28 30 32 35 37 37 37 36 35 34 33 31 30 28 26 26 27 24 24 25 23 23 24 21 18 16 16 21 24 23 21 18 15 14 14 14 13 13 14 14 14 14 14 12 11 11 12 12 12 10 7 5 5 5 5 6 7 8 10 11 11 8 5 4 2 1 1 4 6 5 7 9 8 6
11 11 11 11 14 18 23 26 26 26 27 28 30 32 35 37 37 37 36 35 35 34 32 31 30 27 28 28 23 22 26 24 22 24 22 18 17 18 22 25 24 21 18 15 15 14 14 14 14 15 17 15 14 15 15 13 12 12 12 11 11 8 6 6 6 6 8 8 9 10 10 9 8 5 4 3 1 1 3 3 5 8 8 7 6
10 11 11 14 16 17 18 21 24 27 28 29 30 32 34 35 35 35 35 35 35 33 31 31 31 28 28 29 24 18 22 26 25 23 19 17 17 20 24 26 24 22 18 16 16 15 15 16 16 17 18 16 14 14 15 15 13 11 10 10 10 9 8 7 7 8 10 10 10 10 9 8 8 5 4 5 2 1 3 4 6 7 6 7 8
9 8 9 12 16 16 15 16 21 26 27 28 29 32 34 34 34 34 34 34 34 32 30 31 32 29 27 30 26 19 18 23 26 23 17 14 15 20 25 26 24 22 19 18 18 18 18 17 16 17 18 16 14 13 14 16 14 11 9 9 9 9 9 9 9 10 11 13 13 11 10 9 9 9 9 8 6 4 2 4 7 6 6 8 7
8 7 7 8 12 16 17 16 17 21 23 25 27 30 32 33 33 33 32 33 33 32 31 31 32 28 26 29 28 22 19 21 25 25 20 17 16 18 21 23 22 22 20 20 20 19 19 17 15 16 18 16 14 13 13 14 15 12 10 10 10 10 10 9 10 11 11 13 13 13 12 11 12 13 14 13 10 8 6 5 6 5 5 6 6
8 7 7 7 8 13 17 18 18 19 23 25 26 29 31 31 32 32 31 32 33 33 32 31 31 29 27 28 28 25 21 20 22 23 22 20 17 17 18 20 21 22 21 21 20 19 18 16 15 15 16 16 15 15 14 13 14 15 14 13 12 11 11 11 11 12 11 11 12 13 13 13 12 13 14 13 12 10 8 6 5 4 4 4 5
8 7 8 8 8 11 15 19 19 20 24 26 26 28 31 31 32 32 31 31 31 32 32 31 31 29 27 27 27 26 23 21 22 22 22 21 20 18 17 18 19 20 20 19 19 18 16 16 16 16 15 16 16 16 15 14 15 17 17 16 15 14 13 12 13 13 12 11 11 12 13 14 13 13 13 13 13 11 9 8 5 2 4 6 4
8 8 9 9 11 14 15 18 20 22 24 26 26 27 29 30 32 32 31 31 30 30 31 31 31 30 28 26 26 27 24 21 21 21 21 22 22 21 19 18 18 18 18 17 16 17 16 16 16 16 16 16 17 16 16 16 17 18 18 18 17 16 14 14 14 13 13 13 13 13 14 15 15 15 15 14 13 14 13 12 8 3 3 4 3
9 9 9 10 13 17 17 18 21 22 23 25 27 27 29 30 31 32 32 33 32 30 29 30 31 30 29 27 26 27 26 22 21 21 21 21 21 21 20 19 19 18 18 18 17 17 17 17 16 16 16 16 17 17 17 18 19 19 19 19 18 16 15 14 14 14 14 14 14 14 15 16 16 15 15 15 14 15 16 15 13 8 4 2 2
9 10 10 10 13 16 18 19 21 23 23 24 26 28 29 31 32 31 31 32 32 31 30 30 31 31 29 27 26 27 27 25 23 23 22 21 20 20 20 19 19 19 20 19 18 17 17 18 17 16 16 16 18 18 18 18 19 20 19 19 18 16 15 15 15 15 15 15 15 15 14 15 15 14 14 14 12 13 16 17 17 15 10 4 2
9 9 9 10 12 15 17 19 21 22 23 24 26 29 30 31 32 32 31 31 32 32 31 31 31 31 30 28 27 27 28 27 25 24 23 22 21 20 19 19 20 20 20 19 19 18 18 18 17 17 16 16 17 17 17 18 19 19 18 17 17 16 16 16 16 16 16 16 16 15 13 14 13 13 13 12 10 11 14 17 20 21 18 11 7
8 8 8 8 11 15 18 19 21 23 26 28 31 31 31 31 32 32 32 33 33 32 31 31 31 31 31 30 28 28 28 27 26 24 22 22 22 22 21 21 21 21 21 20 20 19 19 19 18 17 16 16 16 16 16 17 17 18 17 16 16 16 17 17 16 15 16 16 16 15 13 13 12 12 12 11 10 10 11 13 16 20 21 20 17
8 8 8 9 11 17 21 23 26 30 32 33 34 33 32 31 31 31 31 32 32 32 31 31 32 30 30 31 29 28 28 28 26 24 23 23 23 23 23 22 22 22 22 21 21 20 20 19 19 18 17 17 16 17 17 17 17 17 16 15 16 17 18 17 16 15 15 15 15 14 13 12 11 13 13 12 11 10 11 12 12 14 17 21 24
8 8 9 9 11 16 21 23 26 29 28 26 29 32 32 31 32 32 31 31 31 31 31 32 33 32 31 31 31 30 29 28 27 25 24 24 24 24 24 23 23 23 22 22 22 21 21 20 19 19 18 17 17 18 18 18 18 18 17 16 17 17 18 17 15 15 14 14 14 14 14 13 13 14 15 14 13 12 12 13 12 11 11 14 20
7 7 8 8 10 15 20 22 22 23 24 24 25 29 31 30 31 31 31 31 31 31 31 32 34 32 31 30 30 30 29 28 26 25 25 25 25 25 24 24 24 23 23 23 22 22 21 21 20 20 19 18 17 18 19 19 19 19 18 18 18 17 17 17 16 15 15 16 16 16 15 14 14 14 15 15 15 14 13 13 13 11 9 8 9
6 7 8 8 11 16 18 19 19 19 23 26 24 25 27 28 29 29 29 30 29 30 31 32 33 34 32 30 29 29 28 28 27 26 26 26 26 25 24 24 24 23 23 23 22 21 20 20 20 20 20 19 18 18 18 20 21 21 20 19 18 18 17 17 17 16 16 16 16 16 15 14 13 14 15 15 15 15 15 14 13 11 10 9 7
7 7 6 7 10 13 13 16 17 17 20 22 20 19 22 24 26 27 28 28 28 29 30 31 32 31 28 25 25 25 25 25 26 25 24 25 25 23 23 23 24 23 22 22 21 20 20 20 21 22 21 21 20 18 17 19 21 21 20 20 18 17 17 17 16 16 16 15 15 16 15 14 14 15 17 16 15 16 16 15 13 11 10 10 8
6 7 6 7 8 9 11 15 16 17 18 19 17 17 19 21 22 24 25 27 28 29 29 30 28 22 19 20 21 22 23 23 24 24 23 23 23 21 20 20 21 21 21 20 20 22 22 23 23 23 23 22 21 20 18 19 21 20 19 18 16 16 16 16 17 17 17 16 16 17 16 14 15 16 17 16 15 16 15 12 11 10 9 8 8
4 6 7 8 8 7 9 12 12 13 16 18 18 18 17 18 20 22 25 27 28 28 28 27 26 22 22 24 24 23 23 24 24 23 22 23 22 20 19 18 19 20 19 20 20 21 23 24 24 23 23 22 20 19 19 20 20 19 18 16 15 16 16 17 17 17 16 16 17 17 16 14 15 16 16 15 15 15 14 12 11 9 8 8 8
3 2 3 5 6 5 7 9 8 8 11 15 18 18 17 18 19 22 25 26 27 28 28 27 26 25 27 29 28 26 26 26 25 23 23 25 24 22 20 18 19 20 20 21 21 20 20 21 22 22 22 21 19 17 18 19 18 17 16 16 16 17 17 17 17 15 14 14 15 15 15 15 15 15 15 14 14 14 14 13 11 9 9 9 8
5 4 3 0 3 4 4 6 6 7 8 12 15 17 18 20 21 23 24 25 26 26 27 26 25 25 27 30 30 28 26 25 24 24 26 27 25 22 20 19 21 21 22 22 21 20 19 19 20 21 21 19 17 17 18 18 16 14 15 17 17 18 18 17 15 15 15 15 15 15 15 14 13 13 13 13 13 14 14 14 13 12 10 10 9
1 2 1 2 2 0 1 1 5 9 10 12 14 16 18 19 21 23 24 25 25 25 25 25 24 25 26 27 27 25 24 23 24 25 25 25 22 18 17 19 22 23 23 22 21 20 20 18 18 19 19 18 17 16 17 16 15 14 15 17 18 18 17 16 14 14 15 16 15 15 13 11 11 11 11 11 12 13 13 14 13 11 11 11 10
3 5 4 3 2 1 2 3 4 8 11 13 15 16 17 18 19 21 23 24 24 24 23 23 24 25 25 24 23 22 22 22 21 21 20 19 16 15 16 19 22 22 22 21 20 19 18 17 17 18 18 18 17 16 14 13 13 13 14 15 16 16 15 14 13 13 14 14 13 13 13 11 10 10 10 10 12 13 12 12 12 12 11 11 11
4 6 6 5 4 3 3 4 4 6 9 12 15 15 15 17 18 19 21 22 22 22 22 23 24 24 22 21 20 20 20 20 18 16 16 16 16 17 19 20 20 20 19 19 17 16 16 15 15 16 16 15 16 15 13 12 11 12 13 13 13 13 12 11 11 12 12 12 11 13 14 12 10 9 10 10 11 13 13 12 13 13 12 12 12
7 5 5 3 3 1 2 6 6 5 6 8 11 13 14 15 17 19 19 20 21 21 21 21 21 20 18 17 17 17 17 17 17 16 16 16 18 20 20 19 18 18 17 16 14 13 13 13 12 13 13 13 13 13 12 11 12 12 12 12 11 11 9 8 9 9 10 11 11 12 13 12 10 10 10 10 11 12 12 12 12 12 13 13 13
9 4 6 8 8 6 4 9 10 6 3 5 8 11 14 16 17 18 18 18 19 19 19 19 18 17 16 15 15 15 16 18 20 20 17 16 18 18 17 16 16 15 14 14 12 11 12 11 10 11 13 13 12 12 11 10 10 10 10 9 9 9 8 7 6 6 7 10 11 11 11 10 10 10 10 10 11 11 11 10 10 11 12 12 11
10 5 5 5 7 7 4 10 14 11 6 2 8 10 11 14 16 16 17 18 18 18 17 17 16 16 16 16 16 17 18 19 20 20 17 15 15 14 13 12 12 11 12 12 11 11 11 10 10 12 14 13 12 11 9 9 8 7 7 7 7 7 8 8 7 6 8 10 11 12 12 10 9 7 8 8 9 11 12 11 9 8 8 8 7
12 9 8 8 10 9 6 5 11 13 12 5 4 9 11 13 15 16 17 18 18 18 18 19 18 18 18 18 19 19 18 18 18 17 16 14 14 12 10 9 8 8 8 9 9 10 10 10 10 13 14 14 12 10 8 7 6 5 5 5 6 6 7 8 8 8 9 10 12 12 11 10 7 6 6 6 6 8 9 8 6 5 4 3 4
10 12 12 13 13 11 10 6 4 11 13 9 3 6 11 13 15 17 18 19 18 18 19 20 20 21 21 21 21 20 19 18 17 16 16 15 13 11 10 10 9 7 7 6 7 8 9 10 12 13 14 13 11 10 8 6 4 3 3 4 5 6 7 8 9 7 6 8 9 10 10 9 8 7 6 5 4 4 3 3 3 3 3 3 3
8 12 12 11 11 12 11 7 2 7 10 10 6 4 10 13 15 18 18 19 19 19 20 21 22 22 23 23 23 22 21 19 17 17 17 16 14 13 13 13 11 10 11 10 9 8 8 10 13 13 13 13 12 10 8 5 3 2 3 4 6 7 9 10 11 9 5 4 5 6 9 9 8 7 6 4 4 4 4 4 5 6 6 6 6
10 14 14 11 9 10 10 6 2 2 5 9 7 6 10 14 17 18 18 19 19 20 21 22 21 22 23 23 24 23 20 19 19 19 19 19 19 18 17 16 15 15 14 12 10 10 10 11 12 12 12 12 11 9 7 5 3 3 4 6 8 10 11 11 11 9 7 4 4 5 6 6 7 7 6 6 6 6 6 7 8 8 9 9 9
11 13 12 10 9 9 9 8 6 5 3 5 6 9 11 15 18 18 18 19 20 21 21 21 22 23 23 23 23 23 21 20 21 22 23 24 23 21 21 20 18 16 14 11 10 11 12 12 12 11 11 10 9 8 6 4 2 3 5 6 8 9 8 6 4 5 5 6 5 5 5 5 5 5 5 5 5 6 7 8 8 9 10 10 10
12 11 11 10 10 10 10 12 12 11 9 5 2 7 8 12 18 18 19 21 22 22 22 21 22 23 22 23 22 23 23 23 23 24 25 25 24 23 22 20 17 15 14 12 11 11 13 14 13 12 12 10 8 7 5 2 1 2 4 5 7 7 4 2 1 1 4 6 4 3 3 3 2 2 3 4 5 6 7 8 8 9 11 11 10
11 11 13 14 10 9 10 10 11 11 12 9 3 4 7 9 14 17 21 23 23 23 22 22 23 23 22 22 23 23 24 24 24 24 24 23 23 22 20 18 16 15 15 14 14 13 13 14 13 11 11 10 7 5 3 1 0 2 4 5 5 4 2 2 1 3 5 5 4 2 2 1 2 4 6 7 8 8 9 9 10 10 10 10 9
13 11 14 16 13 10 11 11 10 9 8 7 7 7 7 8 12 19 23 25 23 22 23 24 24 24 23 23 23 23 24 24 24 25 24 23 22 20 18 17 16 15 14 14 14 14 13 13 12 10 8 8 7 4 2 1 1 2 5 5 4 2 3 3 2 3 4 3 1 1 3 5 6 7 8 8 8 9 9 9 8 8 8 9 8
12 11 11 13 13 12 13 13 13 9 5 4 1 10 11 11 13 21 23 23 23 23 25 25 25 24 25 24 24 23 23 24 25 25 25 23 21 20 18 16 15 15 14 13 13 13 13 13 12 10 8 7 6 4 3 1 1 2 3 3 2 1 3 4 3 3 2 1 2 3 4 5 5 5 5 4 4 4 4 4 4 5 6 7 8
10 11 9 10 11 10 9 11 13 10 6 8 6 9 15 17 19 22 25 23 24 25 25 25 26 26 25 25 25 23 23 24 24 23 23 22 20 19 17 15 15 14 13 12 12 12 12 12 11 10 9 7 5 4 3 2 0 1 2 2 2 3 4 4 4 3 1 2 3 3 1 1 1 0 2 3 3 2 2 1 1 3 4 5 6
11 13 12 12 12 11 7 6 12 12 8 5 7 13 20 21 20 23 26 25 25 26 26 26 25 25 25 25 25 25 24 24 24 23 22 22 20 18 17 16 14 14 13 13 12 11 11 11 11 10 9 8 7 6 5 3 2 1 3 5 5 5 5 4 4 3 3 2 2 1 2 3 3 3 4 4 3 3 2 1 2 2 2 3 4
10 11 12 16 16 14 11 4 8 10 7 2 5 11 17 19 17 20 25 27 27 25 26 26 24 23 24 24 25 26 26 25 25 24 23 22 21 19 18 17 15 15 14 13 12 12 11 11 12 12 11 11 10 8 7 5 3 3 4 5 5 6 5 4 3 3 4 4 3 3 3 4 3 2 2 2 2 1 0 1 2 2 2 3 3
7 8 9 13 15 14 13 8 2 5 4 4 7 8 12 16 18 21 22 25 30 28 25 25 23 21 21 22 23 25 25 25 26 25 24 23 22 21 20 18 17 16 15 13 12 12 12 12 12 13 13 13 12 10 9 6 5 4 5 4 3 2 2 2 2 2 3 3 3 3 2 2 1 1 2 2 2 1 2 2 2 2 2 2 2
1 7 6 7 11 13 14 13 6 1 3 3 4 5 10 14 19 23 23 21 28 31 27 25 24 22 20 20 21 23 23 24 25 25 24 24 23 22 20 19 17 17 17 16 14 13 13 12 12 12 13 14 14 12 10 7 5 5 5 5 4 3 3 3 2 2 3 2 2 2 2 2 2 2 3 3 3 2 3 4 3 2 1 1 1
6 5 5 4 7 13 15 14 11 5 1 1 1 1 4 11 17 23 25 23 26 30 28 26 25 23 22 21 20 20 22 23 23 22 22 22 22 21 19 17 15 15 16 16 15 14 13 13 12 12 12 14 14 13 9 6 6 6 6 6 5 4 4 4 3 3 4 4 4 3 3 2 3 3 4 4 4 5 6 5 3 2 2 1 1
7 5 6 6 8 13 15 13 11 9 5 2 3 4 7 11 15 18 21 19 21 25 26 26 25 24 24 23 21 20 21 21 21 21 20 20 20 20 19 17 16 15 14 14 14 14 13 12 12 12 12 12 12 11 8 7 8 8 7 7 6 5 5 5 5 5 5 5 5 5 5 5 5 6 6 5 7 8 8 6 3 2 2 2 1
7 7 7 8 9 13 16 16 14 11 7 4 5 5 7 10 13 15 17 14 12 16 19 22 23 23 23 23 22 21 21 21 21 22 21 20 19 18 18 18 17 16 16 15 14 13 13 13 13 13 12 12 11 10 9 9 9 9 9 8 8 7 7 7 6 5 4 5 6 7 7 7 7 8 8 7 8 9 10 8 5 3 3 2 3
Wind_Direction
167 170 174 174 174 173 176 185 188 182 201 230 200 186 187 183 184 186 186 189 190 192 191 188 190 191 191 195 197 196 196 198 200 202 203 204 205 206 204 206 210 214 219 220 217 218 214 203 200 195 203 215 210 206 225 255 271 272 290 296 293 290 289 292 291 294 299 305 315 317 317 314 305 306 315 328 341 7 28 21 6 352 336 325 311
161 165 171 174 172 175 181 186 188 182 187 213 206 189 189 187 186 186 184 187 189 191 191 191 196 195 193 197 199 198 199 202 208 210 210 211 214 215 212 209 210 215 220 221 216 215 215 211 206 200 198 207 211 214 233 252 265 276 286 284 285 290 290 292 288 283 287 302 322 323 327 329 314 310 318 323 336 5 11 4 4 359 346 337 319
168 169 169 173 173 177 184 188 193 186 183 199 202 189 188 189 189 187 184 185 188 191 191 190 193 193 193 198 199 200 201 204 212 214 210 213 221 223 220 215 212 215 219 219 216 214 216 218 213 208 206 211 222 233 247 257 265 270 269 268 284 292 285 279 272 266 269 292 342 329 326 345 330 325 338 329 323 330 328 338 354 0 360 6 39
170 172 171 173 176 180 184 188 194 193 189 196 196 188 187 188 188 187 185 187 189 191 194 193 190 189 189 194 196 199 202 205 211 210 209 215 221 220 219 216 214 217 219 219 218 215 218 221 219 217 217 224 238 249 258 263 264 265 263 266 280 285 278 270 262 258 254 248 289 307 284 12 322 319 344 328 307 294 298 319 334 345 4 20 24
170 171 173 172 178 185 187 188 193 198 197 194 190 186 185 187 188 188 187 188 189 190 193 196 194 191 190 189 192 199 205 208 210 210 213 217 215 214 216 215 215 217 220 222 223 220 219 221 222 223 222 223 236 249 257 261 261 262 267 275 284 284 274 265 258 257 250 239 235 245 352 359 274 298 341 327 306 289 288 308 313 316 342 357 349
175 172 172 173 181 189 189 190 195 201 198 192 189 184 183 186 187 187 187 187 189 190 191 195 198 197 195 192 193 198 204 209 208 209 214 215 214 217 217 214 213 216 218 220 223 223 222 222 223 223 220 222 233 243 245 251 258 262 270 282 292 290 271 256 246 245 249 246 246 253 270 275 267 318 4 325 320 293 278 314 321 318 327 338 354
180 176 174 172 178 189 191 190 196 200 197 192 187 182 181 182 184 184 185 186 187 188 190 193 197 199 199 200 201 200 203 208 208 209 215 218 219 224 219 213 213 215 217 220 220 220 218 217 219 219 219 227 234 236 236 244 255 262 272 281 286 284 264 246 236 241 254 254 250 261 274 271 267 279 225 252 318 288 276 315 328 336 336 339 349
175 175 180 177 175 185 188 190 194 196 196 192 184 180 180 180 181 183 184 186 187 188 191 193 194 198 201 204 208 206 206 208 208 210 216 217 217 220 217 213 213 215 219 221 217 211 209 210 218 222 225 233 240 241 237 239 251 263 273 276 274 264 250 246 250 259 274 277 271 280 289 274 258 260 250 239 216 256 296 312 320 333 339 345 354
175 177 181 183 180 182 184 187 190 189 188 187 181 179 180 180 181 183 183 186 188 189 192 193 194 198 203 205 208 208 210 211 207 210 216 215 214 217 215 213 213 214 220 224 217 210 211 217 225 229 230 237 247 248 240 238 252 265 268 268 265 256 246 249 258 268 277 289 295 301 304 278 256 260 261 247 181 220 290 303 317 329 341 355 359
179 180 181 187 183 179 183 183 181 181 180 180 178 176 177 179 180 182 184 186 189 191 193 194 194 200 206 206 203 200 208 210 207 209 212 212 214 216 214 212 212 213 217 222 218 215 219 226 233 234 232 238 251 252 242 241 254 268 263 258 258 253 250 256 264 274 279 283 291 301 304 280 261 257 243 241 226 232 271 278 293 310 322 329 338
183 180 183 187 173 171 191 192 175 174 176 174 174 173 174 178 180 182 184 186 188 190 192 193 196 202 208 208 205 197 198 203 203 202 197 192 198 206 208 209 211 213 215 217 218 219 223 230 239 237 234 240 252 255 248 243 251 265 260 252 257 259 259 262 267 275 280 278 280 290 299 291 282 275 259 246 229 216 237 269 280 291 292 301 320
180 176 179 178 159 167 194 203 182 171 172 173 174 173 172 175 178 180 183 186 189 190 191 193 197 204 208 208 208 203 196 196 196 196 194 187 184 190 198 205 209 212 214 215 217 220 224 231 237 234 234 240 247 253 253 246 248 257 256 254 260 262 259 261 267 274 276 274 275 279 289 300 302 296 281 264 245 235 234 247 270 289 285 288 307
179 176 175 175 165 172 185 193 185 174 176 179 176 174 176 176 177 179 181 186 190 192 193 194 198 204 207 208 211 209 205 203 198 198 201 201 195 190 193 199 204 207 211 214 216 218 223 230 233 232 235 241 246 249 249 245 246 251 255 259 260 258 255 259 267 272 269 268 274 276 281 292 303 309 299 277 256 242 234 241 263 271 254 271 304
179 178 177 180 180 180 181 184 184 179 181 183 178 177 180 181 182 183 183 186 190 193 195 196 199 205 207 208 211 211 209 209 208 207 209 213 214 212 209 209 209 210 212 215 216 217 221 227 231 234 238 244 247 248 245 243 245 249 253 258 258 256 257 261 265 269 266 266 273 278 282 289 295 304 307 292 265 245 238 245 252 253 253 258 272
179 180 181 186 183 182 181 181 184 185 184 183 181 181 182 184 188 190 190 189 192 195 196 198 202 206 209 209 210 212 210 211 214 213 213 216 220 224 226 227 227 225 223 223 221 221 224 228 231 235 241 246 248 248 247 247 248 249 252 256 259 260 261 261 261 265 269 270 272 278 285 291 296 301 305 301 278 259 258 260 252 230 266 270 256
180 182 184 188 184 181 180 180 185 189 187 184 183 182 184 187 190 192 193 194 195 197 198 201 204 206 209 209 209 211 212 214 216 216 215 217 220 224 228 232 234 233 231 231 230 229 230 230 231 234 241 247 247 246 247 248 249 250 253 258 261 262 260 260 262 266 269 270 273 279 284 287 294 300 304 305 293 273 267 268 258 236 227 264 293
182 183 183 184 183 183 181 179 183 188 190 188 186 185 186 188 191 192 194 194 196 199 200 203 205 205 208 209 209 211 213 215 217 218 218 219 221 225 227 230 234 232 231 233 235 236 233 230 230 233 238 244 246 246 247 250 251 250 254 259 261 261 260 262 266 267 265 267 271 277 283 285 289 299 308 310 302 283 271 270 267 254 236 215 241
187 184 181 180 180 182 181 179 182 186 190 193 191 190 190 190 191 192 192 193 196 198 201 204 205 205 206 208 210 212 214 217 219 219 218 218 221 224 225 227 231 230 231 234 237 236 233 230 230 232 236 240 243 243 245 250 251 251 253 257 260 261 261 264 268 267 264 267 272 275 280 283 285 296 308 310 303 291 280 275 273 265 252 235 230
189 182 177 181 183 181 177 174 176 180 188 194 194 194 194 193 193 192 193 195 197 198 200 204 205 204 206 209 211 213 215 218 220 220 219 219 221 224 225 228 229 229 231 234 235 234 234 234 234 235 237 239 240 241 245 248 248 249 251 255 258 259 260 265 270 269 268 270 274 277 279 280 282 286 292 298 296 293 286 280 280 273 260 248 243
188 184 179 183 184 182 179 175 176 182 188 192 191 192 195 195 194 194 195 197 199 199 199 202 205 206 206 208 210 212 215 217 219 220 222 223 226 227 228 231 231 232 234 234 234 233 233 233 233 234 233 234 237 240 242 242 241 244 248 251 255 257 260 267 274 274 272 273 275 279 278 275 275 276 276 280 282 285 284 282 288 288 274 261 251
186 185 181 178 176 180 183 182 181 185 191 192 188 188 192 194 195 196 197 198 200 200 199 202 206 207 207 208 209 211 214 216 219 222 226 228 230 231 232 234 235 237 237 236 234 233 231 230 231 231 230 232 236 238 238 236 236 239 243 247 251 255 261 269 275 276 274 274 276 278 276 273 271 272 273 273 273 276 280 280 284 294 293 277 258
181 175 174 169 169 178 185 186 182 181 190 198 193 189 190 192 194 195 197 199 201 200 200 203 206 208 209 210 210 212 214 217 220 224 228 231 233 234 235 236 237 239 239 239 238 235 233 233 234 233 233 235 238 238 236 234 236 239 241 243 246 252 260 266 271 274 273 274 277 277 276 274 273 272 271 271 272 275 279 282 285 288 294 304 282
159 161 168 166 170 179 184 187 183 179 191 200 197 192 191 191 192 195 197 199 200 201 203 204 206 209 211 211 212 213 215 217 220 224 228 231 233 234 235 237 238 239 240 241 240 238 234 232 232 232 233 234 237 238 238 238 240 242 242 244 247 252 258 263 267 270 272 274 275 274 274 275 274 275 275 272 270 271 275 281 285 284 281 295 318
146 153 155 149 165 176 181 189 188 182 192 201 198 193 192 190 192 194 196 197 198 202 205 207 208 208 206 207 211 214 213 214 216 220 224 229 231 232 234 237 239 239 240 241 237 232 229 227 226 229 230 233 237 240 241 244 245 245 247 248 251 254 256 260 263 265 269 271 270 270 273 274 272 275 279 276 268 266 271 276 280 279 275 280 298
134 142 137 144 167 178 186 196 193 184 190 198 196 191 190 191 193 194 194 196 197 202 206 208 206 201 196 202 210 211 207 207 211 214 220 225 227 228 230 233 236 237 239 239 233 227 226 227 230 234 236 239 241 240 241 246 248 248 249 249 249 252 253 254 258 262 266 267 265 267 271 271 273 277 280 275 268 264 267 275 279 271 268 278 284
127 140 145 164 178 183 190 199 197 184 184 191 193 192 189 190 194 194 195 196 198 202 206 206 203 201 205 210 211 207 202 203 209 212 216 221 223 225 228 231 234 236 237 238 237 234 232 234 238 242 245 246 242 239 241 246 248 246 244 244 245 249 251 253 256 262 266 265 262 264 267 270 276 280 278 274 270 267 267 276 282 276 273 280 283
21 82 129 167 175 183 195 196 194 184 178 182 188 191 190 189 193 197 199 200 201 203 207 208 205 205 207 208 207 207 205 205 208 210 212 216 219 221 224 230 235 236 238 240 242 241 237 236 240 244 247 246 241 240 242 243 243 242 242 244 246 248 251 253 257 264 267 265 262 263 269 276 279 279 277 274 273 271 268 269 274 281 283 281 282
8 1 1 94 174 189 202 186 168 162 170 175 179 186 192 195 197 199 201 202 203 205 208 209 206 202 203 206 209 211 211 212 213 214 215 217 219 219 221 227 234 237 239 238 238 238 237 237 240 241 241 239 237 238 238 237 238 240 244 247 248 248 250 253 260 268 270 269 268 270 275 281 283 279 276 276 274 271 267 266 268 272 274 273 276
36 283 318 337 301 284 28 129 139 145 161 170 173 181 189 197 202 203 204 206 206 207 207 206 204 203 205 210 213 214 214 216 217 218 219 221 223 225 226 229 234 237 236 232 231 234 237 239 239 235 231 230 232 233 231 232 238 244 247 248 246 245 248 254 261 266 265 262 263 269 277 285 288 282 276 274 272 267 264 264 263 261 263 269 275
214 222 200 189 228 141 77 74 120 144 162 170 174 179 183 190 199 204 207 209 207 206 205 204 204 207 210 213 216 215 214 213 214 217 221 221 223 229 231 231 232 233 232 229 229 233 238 241 239 235 231 229 230 230 226 226 236 244 246 244 242 244 249 256 260 259 259 259 259 267 278 285 284 277 270 266 263 262 261 259 259 258 260 268 275
268 246 223 187 173 167 132 96 98 138 166 176 177 179 181 185 192 200 206 208 205 204 205 205 207 209 210 213 214 213 213 212 212 217 222 223 224 224 224 224 226 228 227 227 231 235 238 240 238 235 231 225 223 225 222 222 231 239 242 240 240 244 248 256 260 261 264 271 273 274 277 279 277 273 270 263 259 262 265 266 266 264 261 264 269
298 275 285 340 44 35 105 92 81 109 161 185 182 178 181 185 190 199 206 208 206 206 207 209 212 214 213 215 215 215 220 222 218 217 220 218 216 216 218 221 224 226 224 223 228 230 228 230 230 226 221 215 215 219 220 223 230 234 236 238 242 245 248 258 266 264 265 272 277 276 273 272 270 268 267 262 258 262 265 266 266 263 259 258 259
305 317 339 3 18 359 30 77 71 72 134 207 204 189 189 191 194 201 208 209 209 208 210 212 215 219 220 221 222 220 222 221 215 214 216 213 211 215 218 220 222 221 219 216 216 213 211 216 222 216 212 211 213 216 219 223 226 228 231 238 245 246 247 256 266 269 272 277 280 279 275 272 268 265 265 265 265 265 262 259 259 260 258 255 254
315 1 14 7 11 346 8 79 80 72 66 236 229 219 209 202 199 203 208 212 214 212 211 210 211 216 218 217 215 212 212 213 212 213 217 215 212 212 210 208 209 208 208 210 206 200 203 213 215 208 207 209 208 207 207 206 207 212 221 229 234 237 239 243 252 267 278 280 278 275 275 274 269 261 260 262 262 262 261 256 255 260 264 264 267
325 350 355 356 7 347 331 52 89 94 79 67 227 233 232 217 207 208 209 212 217 217 214 209 206 207 208 206 205 204 206 209 209 210 211 205 200 200 195 191 192 189 194 204 205 201 206 212 206 202 204 204 199 192 186 185 187 191 205 221 233 241 246 249 253 264 273 275 273 268 265 265 256 241 244 249 251 259 264 262 257 259 267 278 287
329 340 339 343 352 338 317 332 84 116 106 90 106 229 236 226 213 211 211 211 214 217 217 214 209 205 203 202 201 203 205 205 201 197 196 192 189 186 177 170 167 162 163 174 186 192 200 202 199 201 200 193 186 182 176 173 177 192 220 247 261 268 272 269 264 268 280 281 272 256 244 242 239 234 240 251 252 255 261 263 265 266 269 276 284
330 341 345 347 347 340 327 322 48 114 122 116 111 192 226 228 220 214 214 213 213 216 218 217 214 208 205 203 202 203 203 198 192 188 187 185 177 169 164 159 154 151 149 149 151 156 170 187 195 200 196 185 178 178 177 177 190 227 263 285 294 296 297 289 275 270 283 290 266 241 233 237 237 231 230 240 250 257 262 271 280 285 285 281 275
340 354 9 19 15 2 347 335 5 81 116 121 125 171 208 225 226 219 218 218 216 217 217 215 216 214 210 208 205 204 200 193 187 183 180 176 170 164 163 161 158 158 158 154 150 147 151 168 183 191 190 183 180 184 189 200 225 270 293 301 307 307 305 296 278 264 261 253 234 226 224 225 224 220 223 233 245 255 265 274 281 285 285 281 276
357 10 24 32 28 21 12 10 13 4 33 101 141 163 185 219 228 221 220 222 219 219 217 216 218 219 214 211 207 203 199 192 186 180 174 171 170 168 166 166 167 169 167 164 162 156 152 158 167 174 178 181 185 189 196 211 242 293 306 310 317 314 301 287 275 256 237 225 223 224 214 208 214 222 236 251 259 266 270 274 278 279 278 276 275
358 13 29 35 36 39 31 18 15 15 19 24 158 160 171 226 236 223 218 222 221 219 218 216 217 217 212 207 203 199 195 191 185 180 175 173 171 169 168 170 172 174 173 174 175 169 160 159 163 166 169 174 178 181 185 202 258 309 321 320 324 319 286 229 108 105 180 183 185 190 187 192 218 247 272 283 285 285 282 278 276 274 273 272 270
350 359 17 20 22 48 56 39 31 39 43 32 348 206 196 236 253 236 221 221 222 219 216 213 211 210 206 202 199 197 195 192 187 182 178 176 174 172 172 173 172 171 172 174 176 172 162 159 162 165 167 170 172 174 176 174 304 331 338 330 318 306 245 215 83 93 139 155 155 164 190 273 298 302 303 298 291 285 278 272 268 267 269 270 266
348 355 15 11 3 27 56 58 60 68 68 49 4 312 252 239 268 259 233 221 221 217 210 207 205 204 204 203 202 199 195 191 188 183 178 175 175 175 176 176 172 168 164 162 165 166 161 158 161 165 169 171 171 176 187 161 52 358 351 338 310 265 214 217 200 129 140 154 174 247 293 301 299 300 298 291 283 276 269 266 263 261 267 270 265
342 354 17 16 7 19 42 57 72 89 130 163 322 312 283 245 256 270 255 229 217 211 205 202 202 201 201 202 202 199 192 185 182 180 177 174 175 175 176 176 177 172 163 157 159 162 162 162 165 168 174 179 181 190 203 172 80 19 2 347 314 181 171 191 194 176 172 284 317 318 317 307 299 298 294 289 290 285 283 287 277 268 270 267 259
331 345 4 13 9 11 33 66 84 102 155 190 209 266 267 244 235 253 259 239 215 207 204 203 202 200 199 199 198 196 191 185 181 179 176 174 174 175 175 177 178 176 172 167 165 168 171 171 172 174 177 187 201 214 214 197 102 54 72 81 106 127 142 162 170 164 126 18 350 337 333 321 321 80 119 104 85 80 72 49 250 256 263 254 244
331 335 345 353 355 347 350 64 93 109 139 187 240 253 255 247 234 238 245 233 212 205 204 202 202 201 199 198 196 194 192 189 186 184 181 177 175 176 175 178 180 180 178 175 173 178 184 186 187 188 190 200 212 220 221 220 218 151 121 107 99 102 115 134 142 135 119 101 71 70 110 105 95 112 128 127 121 118 112 144 199 217 229 224 224
326 327 337 341 347 341 325 351 83 100 118 117 302 273 259 257 255 252 241 219 201 199 200 198 200 200 197 196 195 192 191 189 188 188 186 182 181 179 178 179 183 185 185 182 179 181 186 189 193 196 201 208 211 213 215 216 208 179 154 126 103 97 102 114 125 125 126 127 125 117 110 103 100 115 139 152 152 146 161 210 210 231 239 227 217
317 324 333 329 333 331 316 311 43 91 87 33 1 328 295 276 267 267 254 217 195 195 198 199 202 204 201 199 197 193 191 189 188 189 188 186 185 183 181 182 186 187 188 189 188 188 189 191 193 196 201 206 207 208 211 210 206 195 180 167 151 131 124 142 162 159 150 145 147 145 138 136 144 161 178 187 194 261 261 229 224 239 236 217 201
258 322 327 316 317 313 301 296 297 110 102 62 33 4 327 292 261 256 258 230 199 194 197 200 205 208 208 205 200 195 193 192 191 192 190 188 187 186 185 186 188 187 187 189 194 198 200 201 203 206 205 203 205 212 214 210 204 196 186 194 213 227 237 243 238 216 209 209 205 191 182 184 195 208 215 214 215 224 226 231 258 275 239 200 183
176 291 287 258 285 288 284 286 292 302 47 73 101 105 305 285 259 245 244 230 204 194 195 199 201 204 207 207 205 201 199 198 198 197 195 193 192 193 194 192 190 186 184 184 187 192 196 201 210 218 214 206 209 219 220 205 192 190 194 213 237 252 245 239 247 255 252 249 237 222 219 227 238 249 248 228 210 214 225 239 272 289 263 241 181
188 220 249 248 270 282 284 286 292 306 323 296 270 258 251 257 259 254 248 233 205 193 194 196 198 203 207 208 208 209 208 208 207 206 204 202 201 201 200 197 193 190 185 182 182 183 187 195 207 218 220 220 227 234 227 207 200 204 213 224 236 244 237 236 256 272 263 246 235 236 248 260 261 261 252 222 203 212 226 234 246 259 247 225 193
213 198 227 255 279 290 293 293 294 300 300 261 256 278 262 249 255 266 270 257 216 194 193 196 199 205 211 212 212 214 217 219 218 216 215 215 214 212 210 207 203 199 196 195 197 197 196 198 204 210 216 225 235 234 224 218 218 220 223 226 232 240 244 250 264 271 247 223 224 236 250 258 256 250 240 221 210 216 225 228 227 234 237 220 204